Simultaneous Nadir Overpasses (SNOs) Predictions

Prediction of SNOs between METOP-B and TERRA Satellite Orbit:

Table of predicted SNOs for the next 14.0 days since TLE Epoch: 7/12/2014
Index Date (METOP-B) Time (METOP-B) Lat,Lon (METOP-B) SZA (METOP-B ) Date (TERRA) Time (TERRA) Lat,Lon (TERRA) SZA (TERRA ) Distance(km) Time Diff (sec)
1 07/12/2014 20:03:44 -81.33, 106.61 117.78 07/12/2014 20:04:25 -81.32, 106.61 117.76 0.22 41
2 07/12/2014 20:54:23 81.33, -85.61 62.29 07/12/2014 20:53:50 81.33, -85.65 62.26 0.76 33
3 07/15/2014 15:38:02 -81.33, 173.32 117.33 07/15/2014 15:38:34 -81.34, 173.32 117.31 0.81 32
4 07/15/2014 16:28:42 81.33, -18.96 62.73 07/15/2014 16:28:00 81.34, -18.98 62.71 0.75 42
5 07/18/2014 11:12:22 -81.33,-120.41 116.89 07/18/2014 11:12:45 -81.32,-120.57 116.90 2.86 23
6 07/18/2014 12:03:01 81.34, 47.64 63.21 07/18/2014 12:02:10 81.34, 47.48 63.17 2.85 51
7 07/21/2014 06:46:41 -81.33, -53.79 116.35 07/21/2014 06:46:54 -81.33, -53.90 116.36 1.86 13
8 07/21/2014 07:37:21 81.33, 113.81 63.69 07/21/2014 07:36:20 81.33, 113.73 63.65 1.40 61
9 07/24/2014 02:21:00 -81.33, 12.40 115.82 07/24/2014 02:21:02 -81.33, 12.57 115.80 2.83 2




NCC Satellite Simultaneous Nadir Overpasses (SNOs) Prediction Service
